Weather in Solyanoe

Russia / Republic of Crimea     45°19′40″N   35°24′50″E
temp.,
°C
wind,
m/s
gust,
m/s
humid.,
%
clouds,
%
prec.,
mm/h
press.,
hPa
HPBL,
m
27 february, sat
sat2700:00+7ssw47890 0.0 1023112
03:00+6ssw34890 0.0 102273
06:00+6ssw34900 0.0 102061
09:00+8ssw35820 0.0 1020115
12:00+12wsw46590 0.0 1019587
15:00+13w585715 0.0 1018764
18:00+7n469032 0.0 1017210
21:00+6n579465 0.3 1017323
28 february, sun
sun2800:00+5nnw81092100 1.8 1018523
03:00+5n5890100 2.2 1018558
06:00+5nnw7876100 0.1 1019799
09:00+4nnw7984100 0.3 1020710
12:00+4nnw688798 0.1 1021631
15:00+5nnw677589 0.3 1021775
18:00+4nnw698056 0.1 1021749
21:00+4nw688076 0.2 1023509
1 march, mon
mon100:00+4nw578097 0.2 1023552
03:00+3wnw468285 0.3 1024337
06:00+2wnw468993 0.1 1024330
09:00+3wnw458797 0.1 1026425
12:00+4nw447384 0.0 1026651
15:00+5n446954 0.1 1027683
18:00+4nne337291 0.0 1027432
21:00+2n237450 0.0 1029219
2 march, tue
tue200:00+2nnw23770 0.0 1030217
03:00+2wnw348036 0.0 1030242
06:00+1wnw458345 0.1 1030225
09:00+3wnw568056 0.1 1030432
12:00+5wnw56625 0.0 1030908
15:00+6wnw68563 0.0 10281186
18:00+6w696750 0.0 1026959
21:00+4w7127575 0.0 1026755
3 march, wed
wed300:00+5w8127790 0.0 1026501
03:00+5wnw6108482 0.0 1026360
06:00+4nnw468876 0.0 1026367
09:00+4w578254 0.0 1027321
12:00+8wnw566744 0.0 1027652
15:00+9nw576427 0.0 1026830
18:00+7n467315 0.0 1026206
21:00+6nnw017816 0.0 102723